• In Moldova, Republic
  • List of Countries
  • For 7 days
  • Water Temperature
  • Satellite Maps
  • Weather Map
  • Weather Widgets
  • user-avatar
    Login

    Hourly Weather Mayrhofen

    Today, 23 September, Saturday

    Time Temperature Precipitation Wind Pressure Humidity
    00:00 +3°C° 0 mm 1 mps 619 mmHg 82%
    01:00 +4°C° 0 mm 1 mps 620 mmHg 76%
    02:00 +4°C° 0 mm 1 mps 619 mmHg 77%
    03:00 +4°C° 0 mm 1 mps 619 mmHg 78%
    04:00 +3°C° 0 mm 1 mps 619 mmHg 78%
    05:00 +4°C° 0 mm 1 mps 619 mmHg 77%
    06:00 +4°C° 0 mm 1 mps 619 mmHg 76%
    07:00 +4°C° 0 mm 1 mps 620 mmHg 75%
    08:00 +7°C° 0.1 mm 1 mps 620 mmHg 72%
    09:00 +9°C° 0.1 mm 1 mps 621 mmHg 68%
    10:00 +11°C° 0.1 mm 1 mps 622 mmHg 64%
    11:00 +11°C° 0.2 mm 1 mps 622 mmHg 65%
    12:00 +12°C° 0.2 mm 1 mps 621 mmHg 65%
    13:00 +12°C° 0.2 mm 1 mps 621 mmHg 65%
    14:00 +11°C° 0.3 mm 1 mps 621 mmHg 69%
    15:00 +11°C° 0.3 mm 1 mps 621 mmHg 73%
    16:00 +10°C° 0.3 mm 1 mps 620 mmHg 77%
    17:00 +9°C° 0.2 mm 1 mps 620 mmHg 82%
    18:00 +7°C° 0.2 mm 1 mps 619 mmHg 88%
    19:00 +6°C° 0.2 mm 1 mps 619 mmHg 93%
    20:00 +6°C° 0.1 mm 1 mps 619 mmHg 94%
    21:00 +5°C° 0.1 mm 1 mps 619 mmHg 95%
    22:00 +5°C° 0.1 mm 1 mps 619 mmHg 95%
    23:00 +5°C° 0 mm 1 mps 619 mmHg 95%

    Tomorrow, 24 September, Sunday

    Time Temperature Precipitation Wind Pressure Humidity
    00:00 +5°C° 0 mm 1 mps 619 mmHg 95%
    01:00 +4°C° 0 mm 1 mps 618 mmHg 95%
    02:00 +5°C° 0.1 mm 1 mps 618 mmHg 95%
    03:00 +5°C° 0.1 mm 1 mps 618 mmHg 95%
    04:00 +5°C° 0.1 mm 1 mps 618 mmHg 94%
    05:00 +5°C° 0.2 mm 1 mps 618 mmHg 94%
    06:00 +5°C° 0.2 mm 1 mps 619 mmHg 94%
    07:00 +5°C° 0.2 mm 1 mps 619 mmHg 93%
    08:00 +6°C° 0.1 mm 1 mps 619 mmHg 88%
    09:00 +8°C° 0.1 mm 1 mps 620 mmHg 82%
    10:00 +9°C° 0.1 mm 1 mps 620 mmHg 77%
    11:00 +9°C° 0.2 mm 1 mps 620 mmHg 75%
    12:00 +10°C° 0.2 mm 1 mps 620 mmHg 74%
    13:00 +9°C° 0.2 mm 2 mps 620 mmHg 72%
    14:00 +9°C° 0.3 mm 2 mps 620 mmHg 74%
    15:00 +9°C° 0.3 mm 2 mps 620 mmHg 76%
    16:00 +8°C° 0.3 mm 2 mps 620 mmHg 78%
    17:00 +8°C° 0.1 mm 1 mps 619 mmHg 82%
    18:00 +6°C° 0.1 mm 1 mps 619 mmHg 87%
    19:00 +5°C° 0.1 mm 1 mps 619 mmHg 92%
    20:00 +4°C° 0 mm 1 mps 619 mmHg 93%
    21:00 +4°C° 0 mm 1 mps 619 mmHg 94%
    22:00 +3°C° 0 mm 1 mps 619 mmHg 95%
    23:00 +3°C° 0 mm 1 mps 618 mmHg 94%

    Day after tomorrow, 25 September, Monday

    Time Temperature Precipitation Wind Pressure Humidity
    00:00 +3°C° 0 mm 1 mps 618 mmHg 94%
    01:00 +2°C° 0 mm 1 mps 618 mmHg 94%
    02:00 +2°C° 0 mm 1 mps 618 mmHg 92%
    03:00 +2°C° 0 mm 1 mps 618 mmHg 89%
    04:00 +2°C° 0 mm 1 mps 617 mmHg 87%
    05:00 +2°C° 0 mm 1 mps 618 mmHg 86%
    06:00 +2°C° 0 mm 1 mps 618 mmHg 84%
    07:00 +3°C° 0 mm 1 mps 618 mmHg 82%
    08:00 +4°C° 0 mm 0 mps 619 mmHg 76%
    09:00 +6°C° 0 mm 0 mps 619 mmHg 70%
    10:00 +9°C° 0 mm 0 mps 620 mmHg 64%
    11:00 +9°C° 0 mm 0 mps 620 mmHg 62%
    12:00 +11°C° 0 mm 1 mps 620 mmHg 59%
    13:00 +12°C° 0 mm 1 mps 620 mmHg 57%
    14:00 +11°C° 0 mm 1 mps 620 mmHg 59%
    15:00 +11°C° 0 mm 1 mps 620 mmHg 61%
    16:00 +11°C° 0 mm 1 mps 619 mmHg 64%
    17:00 +8°C° 0 mm 1 mps 619 mmHg 71%
    18:00 +6°C° 0 mm 1 mps 618 mmHg 78%
    19:00 +4°C° 0 mm 1 mps 618 mmHg 85%
    20:00 +4°C° 0 mm 1 mps 618 mmHg 85%
    21:00 +3°C° 0 mm 1 mps 618 mmHg 86%
    22:00 +3°C° 0 mm 1 mps 618 mmHg 86%
    23:00 +3°C° 0 mm 1 mps 618 mmHg 87%

    26 September, Tuesday

    Time Temperature Precipitation Wind Pressure Humidity
    00:00 +3°C° 0 mm 1 mps 618 mmHg 87%
    01:00 +3°C° 0 mm 1 mps 618 mmHg 88%
    02:00 +2°C° 0 mm 1 mps 618 mmHg 88%
    03:00 +2°C° 0 mm 1 mps 618 mmHg 88%
    04:00 +2°C° 0 mm 1 mps 618 mmHg 88%
    05:00 +2°C° 0 mm 1 mps 618 mmHg 87%
    06:00 +3°C° 0 mm 1 mps 618 mmHg 86%
    07:00 +3°C° 0 mm 1 mps 618 mmHg 84%
    08:00 +6°C° 0 mm 1 mps 619 mmHg 77%
    09:00 +8°C° 0 mm 1 mps 620 mmHg 70%
    10:00 +11°C° 0 mm 1 mps 621 mmHg 63%
    11:00 +11°C° 0 mm 1 mps 621 mmHg 62%
    12:00 +12°C° 0 mm 1 mps 621 mmHg 60%
    13:00 +12°C° 0 mm 1 mps 621 mmHg 58%
    14:00 +12°C° 0.1 mm 1 mps 621 mmHg 61%
    15:00 +12°C° 0.1 mm 1 mps 620 mmHg 64%
    16:00 +11°C° 0.1 mm 1 mps 620 mmHg 67%
    17:00 +9°C° 0.1 mm 1 mps 620 mmHg 74%
    18:00 +7°C° 0.1 mm 1 mps 619 mmHg 80%
    19:00 +4°C° 0.1 mm 0 mps 618 mmHg 87%
    20:00 +4°C° 0 mm 1 mps 619 mmHg 87%
    21:00 +4°C° 0 mm 1 mps 619 mmHg 87%
    22:00 +4°C° 0 mm 1 mps 619 mmHg 87%
    23:00 +4°C° 0 mm 1 mps 619 mmHg 87%

    27 September, Wednesday

    Time Temperature Precipitation Wind Pressure Humidity
    00:00 +4°C° 0 mm 1 mps 619 mmHg 86%
    01:00 +4°C° 0 mm 1 mps 619 mmHg 86%
    02:00 +3°C° 0 mm 1 mps 619 mmHg 86%
    03:00 +3°C° 0 mm 1 mps 619 mmHg 86%
    04:00 +3°C° 0 mm 1 mps 619 mmHg 86%
    05:00 +3°C° 0 mm 1 mps 619 mmHg 85%
    06:00 +4°C° 0 mm 1 mps 620 mmHg 84%
    07:00 +4°C° 0 mm 1 mps 620 mmHg 84%
    08:00 +6°C° 0 mm 1 mps 621 mmHg 77%
    09:00 +8°C° 0 mm 0 mps 622 mmHg 70%
    10:00 +10°C° 0 mm 0 mps 623 mmHg 63%
    11:00 +12°C° 0 mm 1 mps 623 mmHg 62%
    12:00 +13°C° 0 mm 1 mps 623 mmHg 60%
    13:00 +13°C° 0 mm 1 mps 623 mmHg 58%
    14:00 +13°C° 0.2 mm 1 mps 623 mmHg 61%
    15:00 +12°C° 0.2 mm 1 mps 623 mmHg 65%
    16:00 +12°C° 0.2 mm 1 mps 623 mmHg 69%
    17:00 +10°C° 0.4 mm 1 mps 622 mmHg 76%
    18:00 +7°C° 0.4 mm 0 mps 622 mmHg 82%
    19:00 +5°C° 0.4 mm 0 mps 621 mmHg 89%
    20:00 +5°C° 0.3 mm 0 mps 621 mmHg 89%
    21:00 +6°C° 0.3 mm 1 mps 622 mmHg 90%
    22:00 +6°C° 0.3 mm 1 mps 622 mmHg 90%
    23:00 +5°C° 0.1 mm 1 mps 622 mmHg 90%

    28 September, Thursday

    Time Temperature Precipitation Wind Pressure Humidity
    00:00 +5°C° 0.1 mm 1 mps 621 mmHg 90%
    01:00 +5°C° 0.1 mm 1 mps 621 mmHg 90%
    02:00 +4°C° 0 mm 1 mps 621 mmHg 90%
    03:00 +4°C° 0 mm 1 mps 621 mmHg 90%
    04:00 +3°C° 0 mm 1 mps 621 mmHg 91%
    05:00 +4°C° 0 mm 1 mps 621 mmHg 90%
    06:00 +4°C° 0 mm 1 mps 621 mmHg 90%
    07:00 +4°C° 0 mm 1 mps 621 mmHg 90%
    08:00 +7°C° 0 mm 1 mps 622 mmHg 82%
    09:00 +9°C° 0 mm 1 mps 623 mmHg 75%
    10:00 +12°C° 0 mm 1 mps 624 mmHg 68%
    11:00 +12°C° 0.2 mm 1 mps 624 mmHg 65%
    12:00 +13°C° 0.2 mm 1 mps 624 mmHg 62%
    13:00 +14°C° 0.2 mm 1 mps 624 mmHg 60%
    14:00 +13°C° 0.5 mm 1 mps 624 mmHg 63%
    15:00 +12°C° 0.5 mm 2 mps 624 mmHg 67%
    16:00 +12°C° 0.5 mm 2 mps 624 mmHg 71%
    17:00 +9°C° 0.4 mm 2 mps 623 mmHg 78%
    18:00 +8°C° 0.4 mm 1 mps 622 mmHg 85%
    19:00 +6°C° 0.4 mm 1 mps 622 mmHg 92%
    20:00 +5°C° 0 mm 1 mps 622 mmHg 93%
    21:00 +4°C° 0 mm 1 mps 622 mmHg 93%
    22:00 +4°C° 0 mm 1 mps 622 mmHg 93%
    23:00 +4°C° 0 mm 1 mps 622 mmHg 92%
    Show more